Location: Saint-Palais-sur-Mer
(45.6429°N, 1.0859°W)
Time: 00:38:23
(UTC+01:00)

Tiros 1 despin weight - Pass Details

Date: 11 February 2026
Orbit: 556 x 593 km, 48.2° (Epoch: 13 March)

Event Time Altitude Azimuth Distance (km) Brightness Sun altitude
Rises 21:09:14 0° 273° (W) 2,731 ? -29.1°
Reaches altitude 10° 21:11:30 10° 277° (W) 1,839 ? -29.5°
Enters shadow 21:13:51 31° 290° (WNW) 985 ? -29.9°
Maximum altitude 21:15:39 60° 358° (N) 642 - -30.2°
Drops below altitude 10° 21:19:50 10° 79° (E) 1,853 - -30.9°
Sets 21:22:08 0° 83° (E) 2,755 - -31.3°
